TimeCDT,TemperatureF,Dew PointF,Humidity,Sea Level PressureIn,VisibilityMPH,Wind Direction,Wind SpeedMPH,Gust SpeedMPH,PrecipitationIn,Events,Conditions,WindDirDegrees,DateUTC
12:15 AM,64.4,55.4,73,29.86,10.0,South,5.8,-,N/A,,Scattered Clouds,190,2011-10-12 05:15:00
12:35 AM,64.4,55.4,73,29.86,10.0,SSW,4.6,-,N/A,,Partly Cloudy,200,2011-10-12 05:35:00
12:55 AM,64.4,55.4,73,29.86,10.0,South,6.9,-,N/A,,Clear,170,2011-10-12 05:55:00
1:15 AM,64.4,55.4,73,29.86,9.0,SSE,5.8,-,N/A,,Clear,160,2011-10-12 06:15:00
1:35 AM,64.4,55.4,73,29.86,10.0,SSE,8.1,-,N/A,,Clear,160,2011-10-12 06:35:00
1:55 AM,64.4,55.4,73,29.86,10.0,South,6.9,-,N/A,,Clear,180,2011-10-12 06:55:00
2:35 AM,64.4,55.4,73,29.85,10.0,South,8.1,-,N/A,,Clear,170,2011-10-12 07:35:00
2:55 AM,62.6,55.4,77,29.85,10.0,South,6.9,-,N/A,,Clear,180,2011-10-12 07:55:00
3:15 AM,62.6,55.4,77,29.85,10.0,South,6.9,-,N/A,,Clear,170,2011-10-12 08:15:00
3:35 AM,60.8,55.4,82,29.85,10.0,South,8.1,-,N/A,,Clear,180,2011-10-12 08:35:00
3:55 AM,60.8,55.4,82,29.85,10.0,SSE,8.1,-,N/A,,Partly Cloudy,160,2011-10-12 08:55:00
4:15 AM,60.8,55.4,82,29.84,10.0,South,8.1,-,N/A,,Partly Cloudy,190,2011-10-12 09:15:00
4:35 AM,60.8,55.4,82,29.84,10.0,South,6.9,-,N/A,,Partly Cloudy,180,2011-10-12 09:35:00
4:55 AM,60.8,53.6,77,29.84,10.0,South,5.8,-,N/A,,Clear,170,2011-10-12 09:55:00
5:15 AM,60.8,53.6,77,29.83,10.0,SSE,6.9,-,N/A,,Clear,160,2011-10-12 10:15:00
5:35 AM,60.8,53.6,77,29.83,10.0,SSE,8.1,-,N/A,,Clear,150,2011-10-12 10:35:00
5:55 AM,60.8,53.6,77,29.82,10.0,SSE,6.9,-,N/A,,Clear,150,2011-10-12 10:55:00
6:15 AM,59.0,53.6,82,29.83,10.0,SSE,5.8,-,N/A,,Clear,160,2011-10-12 11:15:00
6:35 AM,59.0,53.6,82,29.83,10.0,SSE,3.5,-,N/A,,Clear,160,2011-10-12 11:35:00
6:55 AM,59.0,53.6,82,29.83,10.0,SSE,4.6,-,N/A,,Clear,160,2011-10-12 11:55:00
7:15 AM,59.0,53.6,82,29.84,9.0,SSE,4.6,-,N/A,,Partly Cloudy,150,2011-10-12 12:15:00
7:35 AM,60.8,53.6,77,29.84,10.0,ESE,4.6,-,N/A,,Scattered Clouds,120,2011-10-12 12:35:00
7:55 AM,60.8,55.4,82,29.85,10.0,Calm,Calm,-,N/A,,Scattered Clouds,0,2011-10-12 12:55:00
8:15 AM,60.8,55.4,82,29.85,10.0,SSE,3.5,-,N/A,,Mostly Cloudy,150,2011-10-12 13:15:00
8:35 AM,62.6,57.2,82,29.85,10.0,South,8.1,-,N/A,,Scattered Clouds,180,2011-10-12 13:35:00
8:55 AM,62.6,57.2,82,29.85,10.0,South,6.9,-,N/A,,Mostly Cloudy,180,2011-10-12 13:55:00
9:15 AM,62.6,57.2,82,29.85,10.0,South,6.9,-,N/A,,Scattered Clouds,180,2011-10-12 14:15:00
9:35 AM,64.4,57.2,77,29.85,10.0,South,5.8,-,N/A,,Partly Cloudy,180,2011-10-12 14:35:00
9:55 AM,64.4,57.2,77,29.85,10.0,South,9.2,-,N/A,,Scattered Clouds,180,2011-10-12 14:55:00
10:15 AM,64.4,59.0,83,29.85,9.0,South,8.1,-,N/A,,Mostly Cloudy,190,2011-10-12 15:15:00
10:35 AM,64.4,59.0,83,29.84,10.0,SSW,3.5,-,N/A,,Overcast,210,2011-10-12 15:35:00
10:55 AM,64.4,59.0,83,29.85,10.0,WSW,8.1,-,0.01,,Overcast,250,2011-10-12 15:55:00
11:15 AM,64.4,59.0,83,29.85,10.0,WSW,8.1,-,N/A,,Overcast,240,2011-10-12 16:15:00
11:35 AM,64.4,59.0,83,29.84,10.0,Calm,Calm,-,N/A,,Overcast,0,2011-10-12 16:35:00
11:55 AM,64.4,59.0,83,29.83,8.0,SSW,4.6,-,0.02,,Overcast,200,2011-10-12 16:55:00
12:15 PM,64.4,59.0,83,29.82,10.0,South,3.5,-,N/A,,Mostly Cloudy,190,2011-10-12 17:15:00
12:35 PM,66.2,59.0,78,29.82,10.0,Calm,Calm,-,N/A,,Partly Cloudy,0,2011-10-12 17:35:00
12:55 PM,66.2,59.0,78,29.81,10.0,Calm,Calm,-,N/A,,Scattered Clouds,0,2011-10-12 17:55:00
1:15 PM,66.2,59.0,78,29.81,10.0,West,4.6,-,N/A,,Mostly Cloudy,280,2011-10-12 18:15:00
1:35 PM,66.2,59.0,78,29.81,10.0,West,8.1,-,N/A,,Overcast,280,2011-10-12 18:35:00
2:15 PM,64.4,59.0,83,29.80,8.0,WNW,10.4,-,0.02,,Mostly Cloudy,290,2011-10-12 19:15:00
2:35 PM,62.6,57.2,82,29.79,7.0,NW,5.8,-,0.14,,Overcast,320,2011-10-12 19:35:00
2:55 PM,62.6,57.2,82,29.77,10.0,NW,5.8,-,0.18,,Overcast,310,2011-10-12 19:55:00
3:15 PM,62.6,57.2,82,29.77,10.0,Calm,Calm,-,0.01,,Overcast,0,2011-10-12 20:15:00
3:35 PM,64.4,57.2,77,29.77,10.0,West,3.5,-,0.02,,Mostly Cloudy,260,2011-10-12 20:35:00
4:15 PM,62.6,57.2,82,29.76,10.0,SSW,4.6,-,0.02,,Overcast,210,2011-10-12 21:15:00
4:35 PM,62.6,57.2,82,29.75,10.0,SSW,6.9,-,0.04,,Overcast,200,2011-10-12 21:35:00
4:55 PM,62.6,57.2,82,29.75,10.0,South,9.2,-,0.07,,Overcast,170,2011-10-12 21:55:00
5:35 PM,62.6,57.2,82,29.72,10.0,SSW,4.6,-,0.02,,Partly Cloudy,210,2011-10-12 22:35:00
5:55 PM,62.6,57.2,82,29.70,10.0,ESE,3.5,-,0.02,,Scattered Clouds,120,2011-10-12 22:55:00
6:15 PM,62.6,57.2,82,29.70,10.0,SE,4.6,-,N/A,,Partly Cloudy,130,2011-10-12 23:15:00
6:35 PM,62.6,57.2,82,29.69,10.0,ESE,3.5,-,N/A,,Partly Cloudy,120,2011-10-12 23:35:00
6:55 PM,62.6,57.2,82,29.69,10.0,ESE,3.5,-,N/A,,Partly Cloudy,120,2011-10-12 23:55:00
7:15 PM,62.6,57.2,82,29.69,10.0,ESE,3.5,-,N/A,,Scattered Clouds,120,2011-10-13 00:15:00
7:35 PM,62.6,57.2,82,29.70,10.0,WSW,3.5,-,N/A,,Mostly Cloudy,250,2011-10-13 00:35:00
7:55 PM,62.6,57.2,82,29.70,10.0,SSW,3.5,-,N/A,,Overcast,210,2011-10-13 00:55:00
8:15 PM,60.8,55.4,82,29.70,6.0,SSE,5.8,-,N/A,,Scattered Clouds,160,2011-10-13 01:15:00
8:35 PM,60.8,55.4,82,29.72,10.0,SW,8.1,-,N/A,,Scattered Clouds,220,2011-10-13 01:35:00
8:55 PM,60.8,57.2,88,29.72,10.0,SSW,9.2,-,N/A,,Scattered Clouds,210,2011-10-13 01:55:00
9:15 PM,60.8,55.4,82,29.72,10.0,South,8.1,-,N/A,,Scattered Clouds,190,2011-10-13 02:15:00
9:35 PM,60.8,55.4,82,29.73,10.0,South,9.2,-,N/A,,Partly Cloudy,180,2011-10-13 02:35:00
9:55 PM,60.8,55.4,82,29.73,10.0,South,6.9,-,N/A,,Mostly Cloudy,190,2011-10-13 02:55:00
10:15 PM,60.8,55.4,82,29.72,10.0,South,8.1,-,N/A,,Partly Cloudy,190,2011-10-13 03:15:00
10:35 PM,60.8,55.4,82,29.72,10.0,South,12.7,-,N/A,,Mostly Cloudy,190,2011-10-13 03:35:00
10:55 PM,60.8,55.4,82,29.71,9.0,South,13.8,-,0.01,,Mostly Cloudy,180,2011-10-13 03:55:00
11:15 PM,60.8,55.4,82,29.71,9.0,South,16.1,-,0.13,,Mostly Cloudy,190,2011-10-13 04:15:00
11:35 PM,60.8,55.4,82,29.69,10.0,South,15.0,-,0.14,,Clear,190,2011-10-13 04:35:00
11:55 PM,60.8,55.4,82,29.69,10.0,South,13.8,-,0.14,,Clear,190,2011-10-13 04:55:00